EW0349 Weather Reports


Display with metric or nautical units.
time (UTC)temp
F
wind
direction
speed
MPH
gust
MPH
rain 1hr
in
rain 24hr
in
rain mn
in
humidity
%
barometer
mb
20260510200101 63 106 0.0 4.0 0.00 0.00 0.00 64 1019.6
20260510194606 62 133 0.0 3.0 0.00 0.00 0.00 65 1019.7
20260510193055 60 184 0.0 4.0 0.00 0.00 0.00 66 1019.8
20260510191608 60 203 1.0 3.0 0.00 0.00 0.00 65 1019.7
20260510190059 60 203 0.0 4.0 0.00 0.00 0.00 65 1019.5
20260510184553 62 209 1.0 5.0 0.00 0.00 0.00 63 1019.7
20260510183050 61 127 0.0 2.0 0.00 0.00 0.00 64 1019.4
20260510181549 60 127 0.0 4.0 0.00 0.00 0.00 63 1019.3
20260510180100 60 213 0.0 3.0 0.00 0.00 0.00 64 1019.2
20260510174548 59 201 2.0 3.0 0.00 0.00 0.00 64 1019.3
20260510173047 59 226 0.0 6.0 0.00 0.00 0.00 65 1019.3
20260510171544 60 199 0.0 3.0 0.00 0.00 0.00 63 1019.2
20260510170045 60 327 0.0 4.0 0.00 0.00 0.00 63 1018.9
20260510164542 58 196 0.0 3.0 0.00 0.00 0.00 64 1018.8
20260510163050 57 188 1.0 4.0 0.00 0.00 0.00 64 1018.8
20260510161551 56 289 2.0 5.0 0.00 0.00 0.00 63 1018.9
20260510160052 57 229 0.0 4.0 0.00 0.00 0.00 62 1018.8
20260510154536 56 295 0.0 3.0 0.00 0.00 0.00 55 1018.8
20260510153044 54 185 2.0 6.0 0.00 0.00 0.00 47 1018.7
20260510151536 52 220 0.0 4.0 0.00 0.00 0.00 37 1018.7
20260510150032 52 225 0.0 1.0 0.00 0.00 0.00 21 1018.4
20260510144541 51 225 0.0 1.0 0.00 0.00 0.00 19 1018.4
20260510143045 50 225 0.0 0.0 0.00 0.00 0.00 16 1018.2
20260510141534 50 225 0.0 0.0 0.00 0.00 0.00 17 1017.9
20260510133035 49 225 0.0 1.0 0.00 0.00 0.00 26 1017.6
20260510130056 49 224 0.0 0.0 0.00 0.00 0.00 29 1017.7
20260510124554 49 224 0.0 1.0 0.00 0.00 0.00 27 1017.4
20260510123051 50 224 0.0 2.0 0.00 0.00 0.00 26 1017.3
20260510121548 49 233 0.0 3.0 0.00 0.00 0.00 18 1017.7
20260510120046 49 288 0.0 2.0 0.00 0.00 0.00 20 1017.5
20260510114544 48 288 0.0 1.0 0.00 0.00 0.00 24 1017.5
20260510113044 49 288 0.0 0.0 0.00 0.00 0.00 28 1017.2
20260510111551 49 288 0.0 0.0 0.00 0.00 0.00 32 1017.3
20260510110037 49 288 0.0 0.0 0.00 0.00 0.00 34 1017.4
20260510104542 50 288 0.0 0.0 0.00 0.00 0.00 40 1016.9
20260510103031 50 288 0.0 1.0 0.00 0.00 0.00 43 1016.8
20260510101528 51 288 0.0 0.0 0.00 0.00 0.00 47 1016.7
20260510100024 52 288 0.0 1.0 0.00 0.00 0.00 48 1016.4
20260510094522 52 288 0.0 1.0 0.00 0.00 0.00 49 1016.1
20260510093019 52 288 0.0 3.0 0.00 0.00 0.00 51 1016.1
20260510091517 53 285 0.0 3.0 0.00 0.00 0.00 56 1016.1
20260510090017 53 287 0.0 3.0 0.00 0.00 0.00 60 1016.0
20260510084511 53 291 0.0 2.0 0.00 0.00 0.00 65 1016.1
20260510083009 54 291 0.0 0.0 0.00 0.00 0.00 68 1015.7
20260510081520 55 291 0.0 2.0 0.00 0.00 0.00 69 1015.8
20260510080003 56 291 0.0 1.0 0.00 0.00 0.00 70 1015.8
20260510074601 56 291 0.0 1.0 0.00 0.00 0.00 70 1015.8
20260510073104 57 292 0.0 2.0 0.00 0.00 0.00 70 1015.8
20260510071558 58 292 0.0 1.0 0.00 0.00 0.00 70 1015.7
20260510070052 59 292 0.0 1.0 0.00 0.00 0.00 69 1015.7
20260510064555 59 286 0.0 4.0 0.00 0.00 0.00 68 1015.6
20260510063046 60 269 0.0 2.0 0.00 0.00 0.00 66 1015.6
20260510061545 60 265 1.0 4.0 0.00 0.00 0.00 66 1015.5
20260510060042 60 241 0.0 3.0 0.00 0.00 0.00 67 1015.5
20260510054530 61 225 1.0 4.0 0.00 0.00 0.00 66 1015.5
20260510053038 62 263 0.0 2.0 0.00 0.00 0.00 64 1015.4
20260510051524 62 269 0.0 4.0 0.00 0.00 0.00 62 1015.1
20260510050016 63 284 0.0 3.0 0.00 0.00 0.00 62 1015.1
20260510044532 63 284 0.0 3.0 0.00 0.00 0.00 62 1015.1
20260510043008 64 283 0.0 3.0 0.00 0.00 0.00 62 1014.9
20260510041503 65 275 1.0 6.0 0.00 0.00 0.00 60 1014.8
20260510040058 66 283 0.0 4.0 0.00 0.00 0.00 59 1014.6
20260510034557 66 290 1.0 3.0 0.00 0.00 0.00 57 1014.4
20260510033106 66 76 0.0 3.0 0.00 0.00 0.00 56 1014.4
20260510031546 68 77 0.0 1.0 0.00 0.00 0.00 57 1014.2
20260510030046 69 77 0.0 2.0 0.00 0.00 0.00 53 1014.2
20260510024537 71 77 0.0 2.0 0.00 0.00 0.00 50 1014.1
20260510023033 72 77 0.0 0.0 0.00 0.00 0.00 46 1014.1
20260510021532 73 77 0.0 0.0 0.00 0.00 0.00 42 1014.1
20260510020026 73 77 0.0 1.0 0.00 0.00 0.00 40 1014.1
20260510014521 73 77 0.0 2.0 0.00 0.00 0.00 40 1014.2
20260510013016 74 78 0.0 2.0 0.00 0.00 0.00 40 1014.3
20260510011515 74 78 0.0 2.0 0.00 0.00 0.00 43 1014.4
20260510010006 74 78 1.0 3.0 0.00 0.00 0.00 43 1014.5
20260510004501 74 88 0.0 2.0 0.00 0.00 0.00 43 1014.6
20260510003103 74 89 0.0 3.0 0.00 0.00 0.00 43 1014.7
20260510001556 75 86 0.0 3.0 0.00 0.00 0.00 41 1014.7
20260510000054 76 65 1.0 5.0 0.00 0.00 0.00 42 1014.9
20260509234555 77 89 0.0 4.0 0.00 0.00 0.00 38 1014.9
20260509233043 75 71 0.0 3.0 0.00 0.00 0.00 39 1015.1
20260509231537 75 59 1.0 4.0 0.00 0.00 0.00 42 1015.3
20260509230031 75 310 0.0 5.0 0.00 0.00 0.00 41 1015.5
20260509224526 75 316 1.0 4.0 0.00 0.00 0.00 42 1015.7
20260509223023 75 217 1.0 5.0 0.00 0.00 0.00 42 1016.0
20260509221519 74 19 2.0 6.0 0.00 0.00 0.00 46 1016.1
20260509220013 73 57 1.0 5.0 0.00 0.00 0.00 48 1016.5
20260509214509 72 26 1.0 6.0 0.00 0.00 0.00 51 1016.8
20260509213005 73 50 1.0 3.0 0.00 0.00 0.00 48 1017.0
20260509211501 72 82 1.0 4.0 0.00 0.00 0.00 50 1017.1
20260509210056 71 22 2.0 4.0 0.00 0.00 0.00 54 1017.2
20260509204555 69 32 1.0 5.0 0.00 0.00 0.00 57 1017.3
20260509203047 69 103 1.0 5.0 0.00 0.00 0.00 53 1017.5
20260509201553 69 244 2.0 5.0 0.00 0.00 0.00 58 1017.7